Hourly Data Report for October 02, 2015

All times are specified in Local Standard Time (LST). Add 1 hour to adjust for Daylight Saving Time where and when it is observed.

FREDERICTON
NEW BRUNSWICK

45°52'08.000" N
66°32'14.000" W
20.70 m
8101505
71700
YFC

Download Data

Hourly Data (October 2015)
Hourly Data Report for October 2, 2015
Temp Definition
°C
Dew Point Temp Definition
°C
Rel Hum Definition
%
Wind Dir Definition
10's deg

Wind Spd Definition
km/h
Visibility Definition
km
Stn Press Definition
kPa
Hmdx Definition


Wind Chill Definition


Weather Definition


TIME
00:00 Legend Double Dagger 7.5 4.1 79 34 17 16.1 102.37     LegendNANA
01:00 Legend Double Dagger 6.9 3.7 80 34 15 16.1 102.39     LegendNANA
02:00 Legend Double Dagger 7.4 2.6 72 35 17 16.1 102.43     LegendNANA
03:00 Legend Double Dagger 7.2 2.7 73 36 17 16.1 102.40     LegendNANA
04:00 Legend Double Dagger 7.0 2.7 74 35 21 16.1 102.37     LegendNANA
05:00 Legend Double Dagger 7.2 3.4 77 36 17 16.1 102.42     LegendNANA
06:00 Legend Double Dagger 7.3 3.6 77 36 18 16.1 102.40     LegendNANA
07:00 Legend Double Dagger 7.1 4.0 80 36 17 16.1 102.48     LegendNANA
08:00 Legend Double Dagger 7.9 4.6 80 1 18 16.1 102.54     LegendNANA
09:00 Legend Double Dagger 8.6 4.9 77 1 26 16.1 102.52     LegendNANA
10:00 Legend Double Dagger 9.2 4.8 74 2 28 16.1 102.53     LegendNANA
11:00 Legend Double Dagger 9.6 4.6 71 1 30 16.1 102.55     LegendNANA
12:00 Legend Double Dagger 10.5 4.6 67 2 22 16.1 102.59     LegendNANA
13:00 Legend Double Dagger 10.5 4.8 68 1 24 16.1 102.61     LegendNANA
14:00 Legend Double Dagger 9.9 5.2 72 36 18 16.1 102.61     LegendNANA
15:00 Legend Double Dagger 10.6 5.8 72 1 28 16.1 102.62     LegendNANA
16:00 Legend Double Dagger 10.6 5.0 68 2 18 16.1 102.63     LegendNANA
17:00 Legend Double Dagger 10.2 5.1 71 3 22 16.1 102.64     LegendNANA
18:00 Legend Double Dagger 9.3 5.1 75 1 21 16.1 102.74     LegendNANA
19:00 Legend Double Dagger 8.6 5.4 80 36 24 16.1 102.80     LegendNANA
20:00 Legend Double Dagger 8.2 5.2 81 1 22 16.1 102.82     LegendNANA
21:00 Legend Double Dagger 8.2 5.0 80 1 21 16.1 102.88     LegendNANA
22:00 Legend Double Dagger 7.5 4.5 81 1 21 16.1 102.90     LegendNANA
23:00 Legend Double Dagger 6.7 4.0 83 1 15 16.1 102.91     LegendNANA

Notes on Data Quality.

Legend

  • E = Estimated
  • M = Missing
  • NA = Not Available
  • ‡ = Partner data that is not subject to review by the National Climate Archives
Date modified: